Bookmark and Share
Track history (hours):
 

MSC Krittika

Last reported at 2014-Apr-23 06:28 UTC. Time now 2014-Apr-24 23:06 UTC.
Position N 34°52' E 139°36'.

Length 202 m; draft 9.8 m.

Type: Ship. MMSI: 354725000.

NotesDate/timePositionNaut miles runAvg speedWind from/ knotsBaromVisibWave heightAir tempDewpointWater temp
2014-Apr-23 06:28N 34°52' E 139°36'1516.3
2014-Apr-23 05:33N 35°05' E 139°44'1312.5
2014-Apr-23 04:33N 35°18' E 139°44'1010.2
2014-Apr-23 03:33N 35°28' E 139°42'0 0.1
2014-Apr-23 02:31N 35°28' E 139°42'0 0.0
2014-Apr-23 01:31N 35°28' E 139°42'0 0.0
2014-Apr-23 00:31N 35°28' E 139°42'0 0.0
2014-Apr-22 23:31N 35°28' E 139°42'0 0.0
2014-Apr-22 22:31N 35°28' E 139°42'0 0.0
2014-Apr-22 21:28N 35°28' E 139°42'0 0.0
2014-Apr-22 20:31N 35°28' E 139°42'0 0.0
2014-Apr-22 19:31N 35°28' E 139°42'0 0.0
2014-Apr-22 18:31N 35°28' E 139°42'0 0.0
2014-Apr-22 17:31N 35°28' E 139°42'0 0.0
2014-Apr-22 16:31N 35°28' E 139°42'0 0.0
2014-Apr-22 15:31N 35°28' E 139°42'0 0.0
2014-Apr-22 14:31N 35°28' E 139°42'0 0.0
2014-Apr-22 13:31N 35°28' E 139°42'0 0.0
2014-Apr-22 12:31N 35°28' E 139°42'0 0.0
2014-Apr-22 11:31N 35°28' E 139°42'0 0.0
2014-Apr-22 10:31N 35°28' E 139°42'0 0.0
2014-Apr-22 09:31N 35°28' E 139°42'5 5.0
2014-Apr-22 08:33N 35°25' E 139°46'1110.6
2014-Apr-22 07:33N 35°14' E 139°47'1010.4
2014-Apr-22 06:33N 35°04' E 139°46'1111.4
2014-Apr-22 05:33N 34°54' E 139°38'1713.8
2014-Apr-22 04:21N 34°40' E 139°28'5514.4
2014-Apr-22 00:33N 34°37' E 138°22'  
2014-Apr-19 18:31N 33°50' E 134°59'1616.4
2014-Apr-19 17:33N 34°06' E 134°58'1514.4
2014-Apr-19 16:33N 34°21' E 134°59'1717.3
2014-Apr-19 15:33N 34°33' E 135°14'7 6.6
2014-Apr-19 14:30N 34°40' E 135°14'0 0.0
2014-Apr-19 13:30N 34°40' E 135°14'0 0.0
2014-Apr-19 12:30N 34°40' E 135°14'0 0.0
2014-Apr-19 11:33N 34°40' E 135°14'0 0.0
2014-Apr-19 10:18N 34°40' E 135°14'0 0.0
2014-Apr-19 09:18N 34°40' E 135°14'0 0.0
2014-Apr-19 08:30N 34°40' E 135°14'0 0.0
2014-Apr-19 07:30N 34°40' E 135°14'0 0.2
2014-Apr-19 06:33N 34°40' E 135°14'8 7.8
2014-Apr-19 05:33N 34°32' E 135°14'1716.7
2014-Apr-19 04:33N 34°19' E 135°01'1413.5
2014-Apr-19 03:33N 34°06' E 134°59'22410.2
2014-Apr-18 05:32N 33°59' E 130°29'1515.1
2014-Apr-18 04:33N 33°48' E 130°17'1010.3
2014-Apr-18 03:33N 33°39' E 130°23'1 1.1
2014-Apr-18 02:31N 33°39' E 130°24'0 0.0
2014-Apr-18 01:31N 33°39' E 130°24'0 0.0
2014-Apr-18 00:31N 33°39' E 130°24'0 0.0
2014-Apr-17 23:31N 33°39' E 130°24'0 0.0
2014-Apr-17 22:31N 33°39' E 130°24'0 0.0
2014-Apr-17 21:31N 33°39' E 130°24'0 0.0
2014-Apr-17 20:31N 33°39' E 130°24'0 0.0
2014-Apr-17 19:31N 33°39' E 130°24'0 0.0
2014-Apr-17 18:31N 33°39' E 130°24'0 0.0
2014-Apr-17 17:31N 33°39' E 130°24'0 0.1
2014-Apr-17 16:31N 33°39' E 130°24'0 0.0
2014-Apr-17 15:31N 33°39' E 130°24'0 0.0
2014-Apr-17 14:31N 33°39' E 130°24'3 3.2
2014-Apr-17 13:31N 33°38' E 130°21'8 8.2
2014-Apr-17 12:33N 33°44' E 130°14'1110.8
2014-Apr-17 11:33N 33°44' E 130°01'1010.0
2014-Apr-17 10:33N 33°40' E 129°50'78316.0
2014-Apr-15 09:31N 24°29' E 119°12'1616.2
2014-Apr-15 08:31N 24°19' E 118°58'4615.2
2014-Apr-15 05:32N 23°50' E 118°20'26013.0
2014-Apr-14 09:34N 22°24' E 113°53'4 3.8
2014-Apr-14 08:30N 22°28' E 113°53'0 0.0
2014-Apr-14 07:30N 22°28' E 113°53'0 0.0
2014-Apr-14 06:30N 22°28' E 113°53'0 0.0
2014-Apr-14 05:30N 22°28' E 113°53'0 0.0
2014-Apr-13 22:12N 22°28' E 113°53'0 0.0
2014-Apr-13 21:24N 22°28' E 113°53'0 0.0
2014-Apr-13 18:24N 22°28' E 113°53'0 0.0
2014-Apr-13 17:24N 22°28' E 113°53'0 0.0
2014-Apr-13 16:24N 22°28' E 113°53'0 0.0
2014-Apr-13 15:30N 22°28' E 113°53'0 0.0
2014-Apr-13 14:30N 22°28' E 113°53'0 0.0
2014-Apr-13 13:30N 22°28' E 113°53'0 0.0
2014-Apr-13 12:24N 22°28' E 113°53'0 0.0
2014-Apr-13 11:30N 22°28' E 113°53'0 0.0
2014-Apr-13 10:30N 22°28' E 113°53'0 0.0
2014-Apr-13 09:12N 22°28' E 113°53'0 0.0
2014-Apr-13 08:30N 22°28' E 113°53'0 0.2
2014-Apr-13 07:33N 22°28' E 113°52'7 7.2
2014-Apr-13 06:34N 22°21' E 113°56'  

Dump ship's entire track history

sailing weather and tide predictions

MSC Krittika — H3RV — position and weather